ONEWEB-0179 (48212 NORAD) Tracking and Keplerian Element Data

This shows tracking and keplerian element data for the satellite.

Feedback or suggestion? Click here.




ElementValue
Catalog48212
NameONEWEB-0179
Epoch Orbit194
Epoch Day173.83334491
Epoch Year2021
RAAN294.0794
Inclination87.6169
Eccentricity0.001229
Argument of Perigee82.1168
Mean Anonmoly301.325
Mean Motion14.51334777
Decay Rate-0.00963841
L11 48212U 21031C 21173.83334491 -.00963841 00000-0 -25842+0 0 9996
L22 48212 87.6169 294.0794 0012290 82.1168 301.3250 14.51334777 1941

Live tracking and technical data element details for ONEWEB-0179 (NORAD 48212). ONEWEB-0179 can be tracked NOW for your location showing map with azimuth and elevation plus other details from your city location.

Track the satellite on the map from your city or location and see movement details for azimuth, elevation, latitude, longitude, range, height, and movement on the map or in text.







IsCatalogInMostPopularTable: catalog: 48212, numindb: 26
Update: records affected: 1



GetName: 48212 ONEWEB-0179

Hit Count: updated at: Thu, 24 Jun 2021 03:42:09 GMT